SL-6 R/B(2), 12311

Orbit data source: Space-Track

SL-6 R/B(2), 12311 is space debris in HEO originally from a launch on Thu, 19 Feb 1981 UTC launched from the Plesetsk Missile And Space Complex (PKMTR). Debris objects in space refer to the collection of defunct objects orbiting the Earth. Examples of debris include non-operational satellites, rocket bodies, and fragments generated from explosions, collisions, or faulty payload assembly.

Loading next visibility...
Identifier
12311, 1981-016E
Orbit
HEO
Country
Flag of CISCIS
Related business
Manufacturer
NPO Energiya
Mission
Spacecraft
Bus & Motor
BLOK-L, Unknown motor
Mass
~900 kg wet, ~1,000 kg dry
Launch date (UTC)
1981-02-19 (45 years ago)
Launch vehicle
Unknown
Launch site
Plesetsk Missile And Space Complex (PKMTR)
Object type
Payload
Rocket body
Debris
Shape & HBR
Unknown
Radar Cross Section
Large (>1 m²)

Expand to show TLE details & history
Last TLE update: 4 days ago

TLE from 4 days ago
0 SL-6 R/B(2)
1 12311U 81016E   26169.71364588 -.00000176  00000-0  00000-0 0  9995
2 12311  71.5158  27.6619 5471002 314.7030  11.9927  2.04676469338844
Epoch: 2026-06-18T17:07Z
TLE epoch observation values (Epoch: 2026-06-18T17:07:39.004Z)
Latitude
-0.00027°
Longitude
-136.1743°
Altitude
6,903.781 km
Speed
6.694 km/s
True Right ascension
01h 50m 45s
True Declination
0° 00' 01"
Sunlit
Object was in daylight at epoch
Visualization orbit readout
Latitude
Unknown
Longitude
Unknown
Altitude
Unknown
Speed
Unknown
Apparent Right ascension
Unknown
Apparent Declination
Unknown
Sunlit
N/A
Visualization observer readout
Local Sidereal Time
23:09:06
Azimuth
Unknown
Elevation
Unknown
Doppler factor
Unknown
Orbital elements
Apogee altitude
34,159.524 km
Perigee altitude
5,488.902 km
Semi-major axis
26,202.35 km
Eccentricity
0.5471
Inclination
71.5158°
RAAN
27.6619°
Arg. of periapsis
314.703°
True anomaly
45.35062°
Mean anomaly
11.9927°
Eccentric anomaly
25.47576°
Mean motion
0.51172 °/min
Orbital period
703.51 mins
BSTAR
0
Loading maneuver chart data...
Computing Atmospheric mass density...
Loading historical data...
Loading historical data...
Loading historical data...
Loading historical data...
Loading historical data...
Loading historical data...
Loading historical data...

Documentation

Showing up to 5 results
|